| time (UTC) | temp C | wind direction | speed KPH | gust KPH | rain 1hr cm | rain 24hr cm | rain mn cm | humidity % | barometer mb |
| 20260508091017 | 2 | 0.0 | 0.0 | 0.00 | 0.00 | 0.00 | 84 | 1007.0 | |
| 20260508090020 | 3 | 270 | 3.2 | 4.8 | 0.00 | 0.00 | 0.00 | 83 | 1006.9 |
| 20260508085023 | 3 | 295 | 1.6 | 3.2 | 0.00 | 0.00 | 0.00 | 82 | 1006.8 |
| 20260508084026 | 3 | 319 | 3.2 | 6.4 | 0.00 | 0.00 | 0.00 | 79 | 1006.8 |
| 20260508083029 | 3 | 349 | 3.2 | 4.8 | 0.00 | 0.00 | 0.00 | 78 | 1006.7 |
| 20260508082033 | 3 | 323 | 3.2 | 4.8 | 0.00 | 0.00 | 0.00 | 81 | 1006.7 |
| 20260508081018 | 3 | 286 | 3.2 | 4.8 | 0.00 | 0.00 | 0.00 | 81 | 1006.7 |
| 20260508080021 | 4 | 312 | 3.2 | 4.8 | 0.00 | 0.00 | 0.00 | 77 | 1006.7 |
| 20260508075024 | 5 | 327 | 3.2 | 6.4 | 0.00 | 0.00 | 0.00 | 73 | 1006.6 |
| 20260508074108 | 5 | 329 | 4.8 | 8.0 | 0.00 | 0.00 | 0.00 | 72 | 1006.6 |
| 20260508073031 | 5 | 316 | 6.4 | 9.7 | 0.00 | 0.00 | 0.00 | 73 | 1006.6 |
| 20260508072016 | 5 | 301 | 4.8 | 6.4 | 0.00 | 0.00 | 0.00 | 73 | 1006.6 |
| 20260508071019 | 5 | 334 | 6.4 | 8.0 | 0.00 | 0.00 | 0.00 | 70 | 1006.7 |
| 20260508070022 | 5 | 333 | 4.8 | 8.0 | 0.00 | 0.03 | 0.00 | 69 | 1006.8 |
| 20260508065025 | 5 | 327 | 4.8 | 6.4 | 0.00 | 0.03 | 0.00 | 69 | 1006.8 |
| 20260508064023 | 5 | 345 | 4.8 | 8.0 | 0.00 | 0.03 | 0.00 | 69 | 1006.8 |
| 20260508063040 | 5 | 335 | 4.8 | 8.0 | 0.00 | 0.03 | 0.00 | 69 | 1006.9 |
| 20260508062017 | 5 | 13 | 4.8 | 6.4 | 0.00 | 0.05 | 0.00 | 69 | 1007.0 |
| 20260508061021 | 5 | 310 | 4.8 | 6.4 | 0.00 | 0.05 | 0.00 | 68 | 1007.0 |
| 20260508060024 | 5 | 348 | 6.4 | 8.0 | 0.00 | 0.05 | 0.00 | 68 | 1007.1 |
| 20260508055047 | 5 | 328 | 6.4 | 14.5 | 0.00 | 0.10 | 0.00 | 69 | 1007.1 |
| 20260508054030 | 4 | 307 | 4.8 | 6.4 | 0.00 | 0.18 | 0.00 | 77 | 1007.2 |
| 20260508053035 | 4 | 313 | 4.8 | 6.4 | 0.00 | 0.30 | 0.00 | 75 | 1007.3 |
| 20260508052018 | 5 | 288 | 3.2 | 4.8 | 0.00 | 0.46 | 0.00 | 74 | 1007.4 |
| 20260508051021 | 5 | 0.0 | 3.2 | 0.00 | 0.48 | 0.00 | 71 | 1007.5 | |
| 20260508050024 | 5 | 10 | 3.2 | 4.8 | 0.00 | 0.48 | 0.00 | 67 | 1007.3 |
| 20260508045028 | 5 | 320 | 4.8 | 9.7 | 0.00 | 0.48 | 0.00 | 71 | 1007.4 |
| 20260508044031 | 4 | 303 | 4.8 | 6.4 | 0.00 | 0.48 | 0.00 | 78 | 1007.4 |
| 20260508043016 | 5 | 325 | 4.8 | 8.0 | 0.00 | 0.48 | 0.00 | 72 | 1007.5 |
| 20260508042019 | 5 | 338 | 4.8 | 6.4 | 0.00 | 0.51 | 0.00 | 73 | 1007.5 |
| 20260508041102 | 4 | 291 | 3.2 | 4.8 | 0.00 | 0.51 | 0.00 | 78 | 1007.8 |
| 20260508040026 | 5 | 0.0 | 0.0 | 0.00 | 0.51 | 0.00 | 76 | 1007.9 | |
| 20260508035048 | 5 | 0.0 | 0.0 | 0.00 | 0.51 | 0.51 | 66 | 1007.9 | |
| 20260508034032 | 6 | 225 | 0.0 | 3.2 | 0.00 | 0.51 | 0.51 | 63 | 1007.9 |
| 20260508033036 | 6 | 337 | 1.6 | 4.8 | 0.00 | 0.51 | 0.51 | 62 | 1007.9 |
| 20260508032040 | 6 | 273 | 4.8 | 6.4 | 0.00 | 0.51 | 0.51 | 60 | 1007.8 |
| 20260508031023 | 7 | 354 | 1.6 | 4.8 | 0.00 | 0.51 | 0.51 | 60 | 1007.6 |
| 20260508030020 | 7 | 285 | 3.2 | 6.4 | 0.00 | 0.51 | 0.51 | 60 | 1007.6 |
| 20260508025017 | 7 | 350 | 6.4 | 11.3 | 0.00 | 0.51 | 0.51 | 57 | 1007.6 |
| 20260508024032 | 7 | 305 | 4.8 | 6.4 | 0.00 | 0.51 | 0.51 | 58 | 1007.6 |
| 20260508023017 | 7 | 314 | 4.8 | 8.0 | 0.00 | 0.53 | 0.51 | 55 | 1007.4 |
| 20260508022101 | 8 | 335 | 6.4 | 9.7 | 0.00 | 0.53 | 0.51 | 55 | 1007.5 |
| 20260508021023 | 8 | 319 | 6.4 | 12.9 | 0.00 | 0.53 | 0.51 | 57 | 1007.4 |
| 20260508020046 | 8 | 318 | 6.4 | 9.7 | 0.00 | 0.56 | 0.51 | 59 | 1007.5 |
| 20260508015029 | 8 | 328 | 6.4 | 8.0 | 0.00 | 0.56 | 0.51 | 57 | 1007.5 |
| 20260508014032 | 8 | 347 | 4.8 | 8.0 | 0.00 | 0.58 | 0.51 | 55 | 1007.5 |
| 20260508013017 | 8 | 315 | 4.8 | 8.0 | 0.00 | 0.58 | 0.51 | 56 | 1007.4 |
| 20260508012020 | 9 | 344 | 4.8 | 9.7 | 0.00 | 0.61 | 0.51 | 55 | 1007.3 |
| 20260508011023 | 9 | 316 | 3.2 | 6.4 | 0.00 | 0.61 | 0.51 | 54 | 1007.2 |
| 20260508010026 | 10 | 347 | 6.4 | 11.3 | 0.00 | 0.64 | 0.51 | 52 | 1007.1 |
| 20260508005029 | 10 | 341 | 9.7 | 14.5 | 0.00 | 0.64 | 0.51 | 50 | 1007.0 |
| 20260508004052 | 10 | 340 | 8.0 | 12.9 | 0.00 | 0.64 | 0.51 | 50 | 1006.9 |
| 20260508003018 | 11 | 353 | 8.0 | 14.5 | 0.00 | 0.64 | 0.51 | 51 | 1006.7 |
| 20260508002021 | 11 | 349 | 8.0 | 14.5 | 0.00 | 0.64 | 0.51 | 50 | 1006.6 |
| 20260508001023 | 11 | 333 | 4.8 | 6.4 | 0.00 | 0.64 | 0.51 | 49 | 1006.3 |
| 20260508000027 | 11 | 5 | 8.0 | 12.9 | 0.00 | 0.64 | 0.51 | 48 | 1006.2 |
| 20260507235023 | 12 | 23 | 6.4 | 9.7 | 0.00 | 0.66 | 0.51 | 48 | 1006.0 |
| 20260507234021 | 12 | 345 | 8.0 | 11.3 | 0.00 | 0.71 | 0.51 | 50 | 1005.8 |
| 20260507233018 | 12 | 328 | 6.4 | 9.7 | 0.00 | 0.74 | 0.51 | 50 | 1005.7 |
| 20260507232033 | 13 | 10 | 8.0 | 14.5 | 0.00 | 0.76 | 0.51 | 48 | 1005.4 |
| 20260507231018 | 14 | 358 | 9.7 | 14.5 | 0.00 | 0.76 | 0.51 | 46 | 1005.1 |
| 20260507230021 | 14 | 319 | 8.0 | 9.7 | 0.00 | 0.79 | 0.51 | 42 | 1004.9 |
| 20260507225024 | 15 | 315 | 8.0 | 17.7 | 0.00 | 0.86 | 0.51 | 42 | 1004.6 |
| 20260507224027 | 15 | 345 | 6.4 | 9.7 | 0.00 | 0.97 | 0.51 | 41 | 1004.4 |
| 20260507223030 | 15 | 316 | 8.0 | 11.3 | 0.00 | 1.02 | 0.51 | 41 | 1004.3 |
| 20260507222016 | 15 | 358 | 8.0 | 12.9 | 0.00 | 1.07 | 0.51 | 44 | 1004.2 |
| 20260507221019 | 14 | 315 | 6.4 | 11.3 | 0.00 | 1.12 | 0.51 | 57 | 1004.2 |
| 20260507220022 | 13 | 119 | 3.2 | 8.0 | 0.00 | 1.19 | 0.51 | 74 | 1004.4 |
| 20260507215025 | 13 | 149 | 3.2 | 4.8 | 0.00 | 1.24 | 0.51 | 76 | 1004.3 |
| 20260507214028 | 13 | 135 | 6.4 | 8.0 | 0.00 | 1.27 | 0.51 | 78 | 1004.3 |
| 20260507213031 | 12 | 95 | 4.8 | 6.4 | 0.00 | 1.30 | 0.51 | 80 | 1004.3 |
| 20260507212016 | 13 | 107 | 6.4 | 9.7 | 0.00 | 1.35 | 0.51 | 77 | 1004.4 |
| 20260507211019 | 13 | 137 | 6.4 | 11.3 | 0.00 | 1.37 | 0.51 | 78 | 1004.2 |
| 20260507210022 | 15 | 70 | 6.4 | 9.7 | 0.00 | 1.40 | 0.51 | 73 | 1004.1 |
| 20260507205045 | 14 | 135 | 0.0 | 4.8 | 0.00 | 1.42 | 0.51 | 75 | 1004.0 |
| 20260507204028 | 14 | 113 | 3.2 | 6.4 | 0.00 | 1.45 | 0.51 | 75 | 1004.0 |
| 20260507203025 | 13 | 193 | 3.2 | 4.8 | 0.00 | 1.50 | 0.51 | 74 | 1004.0 |
| 20260507202016 | 14 | 180 | 1.6 | 6.4 | 0.00 | 1.52 | 0.51 | 73 | 1004.1 |
| 20260507201019 | 13 | 152 | 8.0 | 11.3 | 0.00 | 1.52 | 0.51 | 76 | 1004.2 |
| 20260507200016 | 12 | 163 | 8.0 | 14.5 | 0.00 | 1.52 | 0.51 | 78 | 1004.3 |
| 20260507195025 | 13 | 192 | 9.7 | 12.9 | 0.00 | 1.52 | 0.51 | 76 | 1004.3 |
| 20260507194028 | 13 | 172 | 8.0 | 14.5 | 0.00 | 1.52 | 0.51 | 78 | 1004.3 |
| 20260507193031 | 13 | 201 | 9.7 | 12.9 | 0.00 | 1.52 | 0.51 | 79 | 1004.4 |
| 20260507192016 | 12 | 192 | 8.0 | 12.9 | 0.00 | 1.52 | 0.51 | 80 | 1004.4 |
| 20260507191019 | 13 | 191 | 9.7 | 12.9 | 0.00 | 1.52 | 0.51 | 78 | 1004.5 |
| 20260507190022 | 12 | 184 | 6.4 | 14.5 | 0.00 | 1.52 | 0.51 | 78 | 1004.7 |
| 20260507185025 | 13 | 195 | 8.0 | 11.3 | 0.00 | 1.52 | 0.51 | 76 | 1004.7 |
| 20260507184029 | 13 | 206 | 4.8 | 8.0 | 0.00 | 1.52 | 0.51 | 76 | 1004.8 |
| 20260507183031 | 12 | 203 | 6.4 | 11.3 | 0.00 | 1.52 | 0.51 | 76 | 1004.9 |
| 20260507182017 | 13 | 236 | 8.0 | 12.9 | 0.00 | 1.52 | 0.51 | 76 | 1005.0 |
| 20260507181019 | 13 | 241 | 4.8 | 9.7 | 0.00 | 1.52 | 0.51 | 74 | 1005.0 |
| 20260507180022 | 12 | 211 | 11.3 | 16.1 | 0.00 | 1.52 | 0.51 | 77 | 1005.2 |
| 20260507175025 | 13 | 227 | 8.0 | 11.3 | 0.00 | 1.52 | 0.51 | 73 | 1005.1 |
| 20260507174028 | 13 | 210 | 9.7 | 16.1 | 0.00 | 1.52 | 0.51 | 75 | 1005.1 |
| 20260507173030 | 13 | 235 | 6.4 | 9.7 | 0.00 | 1.52 | 0.51 | 73 | 1005.2 |
| 20260507172015 | 13 | 189 | 8.0 | 14.5 | 0.00 | 1.57 | 0.51 | 74 | 1005.1 |
| 20260507171039 | 15 | 182 | 9.7 | 16.1 | 0.00 | 1.57 | 0.51 | 72 | 1005.2 |
| 20260507170022 | 13 | 209 | 9.7 | 14.5 | 0.00 | 1.57 | 0.51 | 76 | 1005.4 |
| 20260507165019 | 13 | 214 | 6.4 | 9.7 | 0.00 | 1.57 | 0.51 | 74 | 1005.5 |
| 20260507164016 | 13 | 188 | 6.4 | 11.3 | 0.00 | 1.57 | 0.51 | 73 | 1005.5 |
| 20260507163032 | 14 | 172 | 9.7 | 16.1 | 0.00 | 1.57 | 0.51 | 73 | 1005.5 |
| 20260507162017 | 12 | 190 | 8.0 | 12.9 | 0.00 | 1.57 | 0.51 | 75 | 1005.6 |
| 20260507161020 | 13 | 132 | 9.7 | 12.9 | 0.00 | 1.57 | 0.51 | 71 | 1005.6 |
| 20260507160023 | 15 | 121 | 9.7 | 12.9 | 0.00 | 1.57 | 0.51 | 65 | 1005.8 |
| 20260507155027 | 15 | 195 | 9.7 | 11.3 | 0.00 | 1.57 | 0.51 | 63 | 1005.9 |
| 20260507154030 | 13 | 158 | 9.7 | 11.3 | 0.00 | 1.57 | 0.51 | 67 | 1005.9 |
| 20260507153015 | 14 | 149 | 11.3 | 12.9 | 0.00 | 1.57 | 0.51 | 66 | 1006.0 |
| 20260507152018 | 14 | 170 | 8.0 | 11.3 | 0.00 | 1.57 | 0.51 | 67 | 1006.2 |
| 20260507151021 | 14 | 205 | 8.0 | 11.3 | 0.00 | 1.57 | 0.51 | 68 | 1006.2 |
| 20260507150024 | 13 | 161 | 12.9 | 14.5 | 0.00 | 1.57 | 0.51 | 69 | 1006.3 |
| 20260507145027 | 14 | 210 | 9.7 | 12.9 | 0.00 | 1.57 | 0.51 | 69 | 1006.4 |
| 20260507144050 | 13 | 185 | 8.0 | 12.9 | 0.00 | 1.57 | 0.51 | 72 | 1006.4 |
| 20260507143015 | 14 | 187 | 8.0 | 11.3 | 0.00 | 1.57 | 0.51 | 69 | 1006.6 |
| 20260507142018 | 15 | 155 | 6.4 | 11.3 | 0.00 | 1.57 | 0.51 | 66 | 1006.7 |
| 20260507141021 | 15 | 66 | 6.4 | 11.3 | 0.00 | 1.57 | 0.51 | 61 | 1006.8 |
| 20260507140024 | 16 | 158 | 3.2 | 4.8 | 0.00 | 1.57 | 0.51 | 62 | 1006.6 |
| 20260507135027 | 15 | 31 | 4.8 | 6.4 | 0.00 | 1.57 | 0.51 | 63 | 1006.7 |
| 20260507134023 | 15 | 8 | 4.8 | 6.4 | 0.00 | 1.57 | 0.51 | 66 | 1006.8 |
| 20260507133022 | 14 | 358 | 6.4 | 9.7 | 0.00 | 1.57 | 0.51 | 67 | 1006.9 |
| 20260507132018 | 14 | 73 | 8.0 | 14.5 | 0.00 | 1.57 | 0.51 | 69 | 1006.9 |
| 20260507131032 | 13 | 352 | 6.4 | 9.7 | 0.00 | 1.57 | 0.51 | 70 | 1006.7 |
| 20260507130016 | 13 | 28 | 6.4 | 9.7 | 0.00 | 1.57 | 0.51 | 72 | 1007.0 |
| 20260507125039 | 13 | 38 | 6.4 | 11.3 | 0.00 | 1.57 | 0.51 | 73 | 1007.0 |
| 20260507124042 | 13 | 349 | 6.4 | 11.3 | 0.00 | 1.57 | 0.51 | 74 | 1006.8 |
| 20260507123026 | 12 | 348 | 6.4 | 11.3 | 0.00 | 1.57 | 0.51 | 78 | 1006.7 |
| 20260507122028 | 12 | 359 | 4.8 | 9.7 | 0.00 | 1.57 | 0.51 | 82 | 1006.9 |
| 20260507121052 | 11 | 5 | 4.8 | 9.7 | 0.00 | 1.57 | 0.51 | 84 | 1006.9 |
| 20260507120017 | 10 | 328 | 3.2 | 4.8 | 0.00 | 1.57 | 0.51 | 88 | 1007.3 |
| 20260507115019 | 10 | 0.0 | 0.0 | 0.00 | 1.57 | 0.51 | 91 | 1007.2 | |
| 20260507114022 | 10 | 354 | 4.8 | 6.4 | 0.00 | 1.57 | 0.51 | 91 | 1007.3 |
| 20260507113045 | 10 | 211 | 1.6 | 3.2 | 0.00 | 1.57 | 0.51 | 92 | 1007.7 |
| 20260507112028 | 10 | 44 | 1.6 | 4.8 | 0.00 | 1.57 | 0.51 | 95 | 1006.9 |
| 20260507111051 | 10 | 7 | 1.6 | 6.4 | 0.00 | 1.57 | 0.51 | 94 | 1007.6 |
| 20260507110016 | 9 | 248 | 0.0 | 3.2 | 0.00 | 1.57 | 0.51 | 98 | 1007.0 |
| 20260507105019 | 9 | 347 | 3.2 | 8.0 | 0.00 | 1.57 | 0.51 | 97 | 1007.1 |
| 20260507104022 | 8 | 322 | 4.8 | 6.4 | 0.00 | 1.57 | 0.51 | 99 | 1006.9 |
| 20260507103025 | 8 | 346 | 4.8 | 6.4 | 0.00 | 1.57 | 0.51 | 99 | 1006.6 |
| 20260507102022 | 8 | 353 | 1.6 | 8.0 | 0.00 | 1.57 | 0.51 | 99 | 1007.0 |
| 20260507101021 | 7 | 0.0 | 0.0 | 0.00 | 1.57 | 0.51 | 99 | 1006.5 | |
| 20260507100016 | 7 | 0.0 | 0.0 | 0.00 | 1.57 | 0.51 | 99 | 1006.4 | |
| 20260507095031 | 7 | 347 | 3.2 | 6.4 | 0.00 | 1.57 | 0.51 | 99 | 1006.7 |
| 20260507094016 | 7 | 0.0 | 0.0 | 0.00 | 1.57 | 0.51 | 99 | 1006.7 | |
| 20260507093019 | 7 | 282 | 1.6 | 6.4 | 0.00 | 1.57 | 0.51 | 99 | 1006.6 |
| 20260507092022 | 7 | 248 | 1.6 | 3.2 | 0.00 | 1.57 | 0.51 | 99 | 1006.6 |